Showing default

TJS-12, 62374

Orbit data source: Space-Track

TJS-12, 62374 is a payload satellite owned by PLA SSF (CN) in GEO that was launched on Fri, 20 Dec 2024 UTC via a CHANG ZHENG 3B launch vehicle from the Xichang Space Center, China (XSC). Payload-class satellites include a variety of spacecraft equipped with specific instruments for various scientific and technological missions. These include communications satellites like Starlink; space stations such as the ISS; scientific satellites like the Hubble; Earth observation satellites from companies like Planet Labs, Umbra, and HawkEye 360; GPS; miniature CubeSats for education and research; and military/defense satellites.

Not visible in the next 10 days
Identifier
62374, 2024-246A
Orbit
GEO
Country
Flag of CNCN / PRC
Related business
Manufacturer
SISE
Mission
Operational Defense Early Warn
Bus & Motor
FY-4?, LAE
Mass
~5,000 kg wet, ~2,500 kg dry
Launch date (UTC)
2024-12-20 (1 year ago)
Launch vehicle
CHANG ZHENG 3B
Launch site
Xichang Space Center, China (XSC)
Object type
Payload
Rocket body
Debris
Shape & HBR
Box + 2 Pan, 15.0 m
Radar Cross Section
34.063 m², Large (>1 m²)

Expand to show TLE details & history
Last TLE update: 10 hours ago

TLE from 10 hours ago
0 TJS-12
1 62374U 24246A   26125.22177237 -.00000223  00000-0  00000-0 0  9995
2 62374   0.7671 295.4945 0002443  72.5308  81.4342  1.00274475  5132
Epoch: 2026-05-05T05:19Z
TLE epoch observation values (Epoch: 2026-05-05T05:19:21.132Z)
Latitude
0.33874°
Longitude
146.54403°
Altitude
35,783.704 km
Speed
3.075 km/s
True Right ascension
05h 57m 55s
True Declination
0° 20' 18"
Sunlit
Object was in daylight at epoch
Visualization orbit readout
Latitude
Unknown
Longitude
Unknown
Altitude
Unknown
Speed
Unknown
Apparent Right ascension
Unknown
Apparent Declination
Unknown
Sunlit
N/A
Visualization observer readout
Local Sidereal Time
22:47:49
Azimuth
Unknown
Elevation
Unknown
Doppler factor
Unknown
Orbital elements
Apogee altitude
35,797.212 km
Perigee altitude
35,776.61 km
Semi-major axis
42,165.048 km
Eccentricity
0.00024
Inclination
0.7671°
RAAN
295.4945°
Arg. of periapsis
72.5308°
True anomaly
81.46188°
Mean anomaly
81.4342°
Eccentric anomaly
81.44804°
Mean motion
0.25068 °/min
Orbital period
1,436.11 mins
BSTAR
0
Loading maneuver chart data...
Computing Atmospheric mass density...
Loading historical data...
Loading historical data...
Loading historical data...
Loading historical data...
Loading historical data...
Loading historical data...
Loading historical data...
Other satellites on launch #246 in the year 2024 (2024-12-20 UTC)

Documentation

Showing up to 5 results
|